User: anonymous   Login
Location: Unspecified
(0.0000°N, 0.0000°E)
Time: 23:15:29
(UTC+00:00)
Language:

STARLINK-34929 - Orbit

View from above orbital plane
View from above orbital plane
View from above satellite
View from above satellite

Ground track
Ground track

The orbit is defined by the following mean orbital elements,

1 65178U          26145.22610823 +.00000000 +00000-0 +31420-3 0 00005
2 65178  97.4505  17.6674 0002590  86.0834 274.0689 15.05659970    08
Epoch (UTC): 25 May 2026 05:25:35
Eccentricity: 0.0002590
inclination: 97.4505°
perigee height: 548 km
apogee height: 551 km
right ascension of ascending node: 17.6674°
argument of perigee: 86.0834°
revolutions per day: 15.05659970
mean anomaly at epoch: 274.0689°

The dashed part of the orbit path shows where the satellite is in the earth's shadow,  

DLR